• en Suisse
  • Liste des pays
  • À 7 jours
  • Température de l'eau
  • Carte satellitaire
  • Carte météo
  • Widgets météo
  • user-avatar
    Se connecter

    Météo par heure à Dikhil

    Ce jour, 20 Février, Mardi

    Heure Température Précipitation Vent Pression Humidité
    00:00 +27°C° 0 mm 4 m/s 717 mmHg 64%
    01:00 +27°C° 0 mm 3 m/s 716 mmHg 66%
    02:00 +26°C° 0 mm 3 m/s 716 mmHg 68%
    03:00 +26°C° 0 mm 3 m/s 716 mmHg 70%
    04:00 +25°C° 0 mm 3 m/s 716 mmHg 71%
    05:00 +25°C° 0 mm 3 m/s 716 mmHg 73%
    06:00 +25°C° 0 mm 3 m/s 717 mmHg 74%
    07:00 +26°C° 0 mm 3 m/s 717 mmHg 70%
    08:00 +26°C° 0 mm 3 m/s 717 mmHg 66%
    09:00 +28°C° 0 mm 3 m/s 718 mmHg 60%
    10:00 +29°C° 0 mm 4 m/s 718 mmHg 54%
    11:00 +32°C° 0 mm 4 m/s 717 mmHg 49%
    12:00 +33°C° 0 mm 4 m/s 717 mmHg 43%
    13:00 +34°C° 0 mm 5 m/s 716 mmHg 42%
    14:00 +34°C° 0 mm 5 m/s 716 mmHg 41%
    15:00 +35°C° 0 mm 6 m/s 715 mmHg 40%
    16:00 +34°C° 0 mm 6 m/s 715 mmHg 45%
    17:00 +32°C° 0 mm 7 m/s 715 mmHg 49%
    18:00 +30°C° 0 mm 7 m/s 714 mmHg 53%
    19:00 +29°C° 0 mm 7 m/s 715 mmHg 57%
    20:00 +28°C° 0 mm 6 m/s 715 mmHg 60%
    21:00 +27°C° 0 mm 5 m/s 715 mmHg 64%
    22:00 +27°C° 0 mm 5 m/s 715 mmHg 66%
    23:00 +27°C° 0 mm 4 m/s 715 mmHg 67%

    Demain, 21 Février, Mercredi

    Heure Température Précipitation Vent Pression Humidité
    00:00 +26°C° 0 mm 4 m/s 715 mmHg 69%
    01:00 +26°C° 0 mm 4 m/s 715 mmHg 71%
    02:00 +25°C° 0 mm 3 m/s 715 mmHg 72%
    03:00 +25°C° 0 mm 3 m/s 715 mmHg 74%
    04:00 +25°C° 0 mm 3 m/s 715 mmHg 75%
    05:00 +25°C° 0 mm 3 m/s 715 mmHg 77%
    06:00 +24°C° 0 mm 2 m/s 716 mmHg 78%
    07:00 +25°C° 0 mm 2 m/s 716 mmHg 73%
    08:00 +26°C° 0 mm 3 m/s 716 mmHg 69%
    09:00 +27°C° 0 mm 3 m/s 717 mmHg 64%
    10:00 +28°C° 0 mm 3 m/s 717 mmHg 58%
    11:00 +30°C° 0 mm 4 m/s 717 mmHg 51%
    12:00 +33°C° 0 mm 4 m/s 717 mmHg 44%
    13:00 +33°C° 0 mm 5 m/s 716 mmHg 43%
    14:00 +34°C° 0 mm 5 m/s 715 mmHg 41%
    15:00 +35°C° 0 mm 6 m/s 715 mmHg 39%
    16:00 +34°C° 0 mm 6 m/s 715 mmHg 42%
    17:00 +32°C° 0 mm 7 m/s 715 mmHg 46%
    18:00 +31°C° 0 mm 8 m/s 714 mmHg 49%
    19:00 +29°C° 0 mm 7 m/s 715 mmHg 52%
    20:00 +28°C° 0 mm 6 m/s 715 mmHg 55%
    21:00 +27°C° 0 mm 6 m/s 716 mmHg 58%
    22:00 +27°C° 0 mm 5 m/s 716 mmHg 59%
    23:00 +26°C° 0 mm 5 m/s 716 mmHg 61%

    Après-demain, 22 Février, Jeudi

    Heure Température Précipitation Vent Pression Humidité
    00:00 +26°C° 0 mm 4 m/s 716 mmHg 62%
    01:00 +25°C° 0 mm 4 m/s 715 mmHg 65%
    02:00 +25°C° 0 mm 4 m/s 715 mmHg 68%
    03:00 +23°C° 0 mm 4 m/s 715 mmHg 71%
    04:00 +23°C° 0 mm 4 m/s 715 mmHg 73%
    05:00 +23°C° 0 mm 4 m/s 715 mmHg 75%
    06:00 +22°C° 0 mm 4 m/s 715 mmHg 77%
    07:00 +23°C° 0 mm 4 m/s 716 mmHg 71%
    08:00 +25°C° 0 mm 4 m/s 716 mmHg 65%
    09:00 +26°C° 0 mm 4 m/s 717 mmHg 59%
    10:00 +28°C° 0 mm 4 m/s 717 mmHg 51%
    11:00 +30°C° 0 mm 5 m/s 717 mmHg 43%
    12:00 +33°C° 0 mm 5 m/s 717 mmHg 35%
    13:00 +33°C° 0 mm 5 m/s 716 mmHg 33%
    14:00 +34°C° 0 mm 5 m/s 715 mmHg 31%
    15:00 +35°C° 0 mm 6 m/s 715 mmHg 29%
    16:00 +34°C° 0 mm 6 m/s 715 mmHg 32%
    17:00 +33°C° 0 mm 6 m/s 714 mmHg 35%
    18:00 +32°C° 0 mm 6 m/s 714 mmHg 38%
    19:00 +30°C° 0 mm 6 m/s 715 mmHg 41%
    20:00 +29°C° 0 mm 5 m/s 715 mmHg 45%
    21:00 +27°C° 0 mm 4 m/s 716 mmHg 49%
    22:00 +27°C° 0 mm 4 m/s 716 mmHg 50%
    23:00 +26°C° 0 mm 4 m/s 716 mmHg 52%

    23 Février, Vendredi

    Heure Température Précipitation Vent Pression Humidité
    00:00 +26°C° 0 mm 3 m/s 716 mmHg 54%
    01:00 +25°C° 0 mm 3 m/s 715 mmHg 56%
    02:00 +25°C° 0 mm 2 m/s 715 mmHg 59%
    03:00 +24°C° 0 mm 2 m/s 714 mmHg 61%
    04:00 +24°C° 0 mm 2 m/s 714 mmHg 63%
    05:00 +24°C° 0 mm 2 m/s 714 mmHg 65%
    06:00 +23°C° 0 mm 2 m/s 715 mmHg 67%
    07:00 +24°C° 0 mm 2 m/s 715 mmHg 61%
    08:00 +26°C° 0 mm 2 m/s 716 mmHg 56%
    09:00 +27°C° 0 mm 3 m/s 717 mmHg 50%
    10:00 +29°C° 0 mm 3 m/s 716 mmHg 43%
    11:00 +31°C° 0 mm 3 m/s 716 mmHg 36%
    12:00 +34°C° 0 mm 4 m/s 716 mmHg 30%
    13:00 +34°C° 0 mm 4 m/s 715 mmHg 29%
    14:00 +35°C° 0 mm 4 m/s 714 mmHg 28%
    15:00 +36°C° 0 mm 5 m/s 714 mmHg 27%
    16:00 +35°C° 0 mm 5 m/s 714 mmHg 32%
    17:00 +34°C° 0 mm 6 m/s 714 mmHg 37%
    18:00 +32°C° 0 mm 6 m/s 714 mmHg 42%
    19:00 +30°C° 0 mm 6 m/s 714 mmHg 46%
    20:00 +29°C° 0 mm 5 m/s 715 mmHg 51%
    21:00 +28°C° 0 mm 5 m/s 715 mmHg 56%
    22:00 +27°C° 0 mm 4 m/s 715 mmHg 58%
    23:00 +27°C° 0 mm 4 m/s 715 mmHg 59%

    24 Février, Samedi

    Heure Température Précipitation Vent Pression Humidité
    00:00 +26°C° 0 mm 4 m/s 715 mmHg 61%
    01:00 +26°C° 0 mm 3 m/s 714 mmHg 63%
    02:00 +25°C° 0 mm 3 m/s 714 mmHg 65%
    03:00 +25°C° 0 mm 3 m/s 713 mmHg 68%
    04:00 +24°C° 0 mm 3 m/s 714 mmHg 69%
    05:00 +24°C° 0 mm 3 m/s 714 mmHg 71%
    06:00 +24°C° 0 mm 3 m/s 714 mmHg 73%
    07:00 +25°C° 0 mm 3 m/s 715 mmHg 66%
    08:00 +26°C° 0 mm 3 m/s 716 mmHg 60%
    09:00 +27°C° 0 mm 3 m/s 716 mmHg 53%
    10:00 +29°C° 0 mm 4 m/s 716 mmHg 48%
    11:00 +32°C° 0 mm 4 m/s 716 mmHg 42%
    12:00 +34°C° 0 mm 4 m/s 715 mmHg 37%
    13:00 +35°C° 0 mm 4 m/s 715 mmHg 36%
    14:00 +35°C° 0 mm 4 m/s 714 mmHg 36%
    15:00 +36°C° 0 mm 5 m/s 713 mmHg 35%
    16:00 +35°C° 0 mm 5 m/s 713 mmHg 39%
    17:00 +34°C° 0 mm 6 m/s 713 mmHg 44%
    18:00 +33°C° 0 mm 6 m/s 713 mmHg 48%
    19:00 +30°C° 0 mm 6 m/s 714 mmHg 52%
    20:00 +29°C° 0 mm 5 m/s 714 mmHg 56%
    21:00 +28°C° 0 mm 5 m/s 715 mmHg 60%
    22:00 +28°C° 0 mm 5 m/s 715 mmHg 62%
    23:00 +27°C° 0 mm 4 m/s 714 mmHg 65%

    25 Février, Dimanche

    Heure Température Précipitation Vent Pression Humidité
    00:00 +27°C° 0 mm 4 m/s 714 mmHg 67%
    01:00 +26°C° 0 mm 4 m/s 714 mmHg 69%
    02:00 +26°C° 0 mm 4 m/s 714 mmHg 71%
    03:00 +26°C° 0 mm 4 m/s 713 mmHg 73%
    04:00 +25°C° 0 mm 4 m/s 714 mmHg 75%
    05:00 +25°C° 0 mm 4 m/s 714 mmHg 76%
    06:00 +25°C° 0 mm 4 m/s 714 mmHg 78%
    07:00 +26°C° 0 mm 4 m/s 715 mmHg 73%
    08:00 +27°C° 0 mm 4 m/s 715 mmHg 69%
    09:00 +28°C° 0 mm 4 m/s 716 mmHg 64%
    10:00 +29°C° 0 mm 4 m/s 716 mmHg 58%
    11:00 +32°C° 0 mm 4 m/s 715 mmHg 52%
    12:00 +33°C° 0 mm 4 m/s 715 mmHg 46%
    13:00 +34°C° 0 mm 4 m/s 714 mmHg 45%
    14:00 +35°C° 0 mm 4 m/s 714 mmHg 43%
    15:00 +36°C° 0 mm 5 m/s 713 mmHg 41%
    16:00 +34°C° 0 mm 5 m/s 713 mmHg 46%
    17:00 +33°C° 0 mm 6 m/s 713 mmHg 51%
    18:00 +32°C° 0 mm 6 m/s 713 mmHg 55%
    19:00 +30°C° 0 mm 6 m/s 714 mmHg 59%
    20:00 +29°C° 0 mm 5 m/s 714 mmHg 63%
    21:00 +28°C° 0 mm 5 m/s 714 mmHg 67%
    22:00 +28°C° 0 mm 4 m/s 714 mmHg 69%
    23:00 +27°C° 0 mm 4 m/s 714 mmHg 70%
    Voir plus